DLH4EM EDDM-EDDF

Flight info

Callsign DLH4EM
Flight time 0h 37m
Altitude 24000
Route GIVMI1N GIVMI Y101 ERNAS T161 DEBHI DEBHI1B
Aircraft A320/M-SDE3FGHIRWY/LB1

Departure

Time 2026-05-06 17:37
Airport Munich Airport (EDDM)

Arrival

Time 2026-05-06 18:15
Airport Frankfurt Main Airport (EDDF)
Time Latitude Longitude Altitude Speed Heading
2026-05-06 17:06 48.35713 11.79266 1477 ft 0 kts 263°
2026-05-06 17:26 48.35715 11.79300 1482 ft 4 kts 265°
2026-05-06 17:26 48.35717 11.79341 1475 ft 4 kts 271°
2026-05-06 17:26 48.35714 11.79381 1476 ft 4 kts 288°
2026-05-06 17:27 48.35703 11.79410 1473 ft 3 kts 345°
2026-05-06 17:27 48.35699 11.79412 1474 ft 0 kts 354°
2026-05-06 17:29 48.35699 11.79411 1474 ft 1 kts 354°
2026-05-06 17:29 48.35712 11.79425 1473 ft 4 kts 39°
2026-05-06 17:30 48.35744 11.79465 1485 ft 8 kts 39°
2026-05-06 17:30 48.35789 11.79516 1479 ft 8 kts 27°
2026-05-06 17:30 48.35834 11.79524 1485 ft 6 kts 358°
2026-05-06 17:30 48.35869 11.79519 1478 ft 4 kts 354°
2026-05-06 17:31 48.35892 11.79515 1485 ft 3 kts 353°
2026-05-06 17:31 48.35906 11.79512 1475 ft 1 kts 352°
2026-05-06 17:31 48.35911 11.79511 1477 ft 2 kts 352°
2026-05-06 17:31 48.35962 11.79501 1475 ft 10 kts 353°
2026-05-06 17:32 48.36025 11.79490 1477 ft 8 kts 353°
2026-05-06 17:32 48.36078 11.79481 1480 ft 8 kts 353°
2026-05-06 17:32 48.36150 11.79469 1483 ft 11 kts 354°
2026-05-06 17:32 48.36208 11.79505 1479 ft 9 kts 54°
2026-05-06 17:33 48.36222 11.79589 1472 ft 10 kts 82°
2026-05-06 17:33 48.36235 11.79737 1485 ft 18 kts 84°
2026-05-06 17:33 48.36250 11.79944 1485 ft 20 kts 83°
2026-05-06 17:33 48.36265 11.80135 1485 ft 17 kts 83°
2026-05-06 17:34 48.36278 11.80306 1475 ft 17 kts 83°
2026-05-06 17:34 48.36293 11.80505 1485 ft 22 kts 83°
2026-05-06 17:34 48.36311 11.80753 1476 ft 26 kts 84°
2026-05-06 17:34 48.36333 11.81050 1485 ft 31 kts 84°
2026-05-06 17:35 48.36362 11.81385 1485 ft 33 kts 83°
2026-05-06 17:35 48.36386 11.81720 1485 ft 25 kts 84°
2026-05-06 17:35 48.36396 11.81899 1485 ft 15 kts 94°
2026-05-06 17:36 48.36546 11.81987 1482 ft 17 kts 353°
2026-05-06 17:36 48.36658 11.81925 1478 ft 18 kts 303°
2026-05-06 17:36 48.36656 11.81678 1485 ft 42 kts 263°
2026-05-06 17:36 48.36593 11.80876 1481 ft 110 kts 263°
2026-05-06 17:37 48.36481 11.79452 1486 ft 162 kts 263°
2026-05-06 17:37 48.36327 11.77663 1910 ft 178 kts 263°
2026-05-06 17:37 48.36195 11.75831 2764 ft 175 kts 263°
2026-05-06 17:37 48.36062 11.73967 3212 ft 188 kts 263°
2026-05-06 17:38 48.35909 11.71908 3540 ft 207 kts 263°
2026-05-06 17:38 48.35745 11.69707 4188 ft 215 kts 264°
2026-05-06 17:38 48.35940 11.67449 4882 ft 228 kts 290°
2026-05-06 17:38 48.36762 11.65258 5315 ft 251 kts 299°
2026-05-06 17:39 48.37697 11.62990 6092 ft 258 kts 299°
2026-05-06 17:39 48.38657 11.60673 6912 ft 264 kts 299°
2026-05-06 17:39 48.39634 11.58307 7724 ft 269 kts 298°
2026-05-06 17:39 48.40628 11.55891 8526 ft 274 kts 298°
2026-05-06 17:40 48.41631 11.53433 9360 ft 278 kts 298°
2026-05-06 17:40 48.42648 11.50930 10133 ft 283 kts 297°
2026-05-06 17:40 48.43681 11.48384 10867 ft 287 kts 297°
2026-05-06 17:40 48.44820 11.45883 11593 ft 295 kts 308°
2026-05-06 17:41 48.46394 11.43817 12223 ft 311 kts 323°
2026-05-06 17:41 48.48416 11.42419 12422 ft 339 kts 341°
2026-05-06 17:41 48.50814 11.41762 12725 ft 359 kts 349°
2026-05-06 17:41 48.53332 11.41160 13372 ft 364 kts 349°
2026-05-06 17:42 48.55836 11.40495 14024 ft 367 kts 348°
2026-05-06 17:42 48.58359 11.39786 14641 ft 371 kts 348°
2026-05-06 17:42 48.60877 11.39066 15246 ft 375 kts 348°
2026-05-06 17:42 48.63487 11.38321 15876 ft 379 kts 348°
2026-05-06 17:43 48.66057 11.37595 16488 ft 383 kts 348°
2026-05-06 17:43 48.68667 11.36738 17115 ft 385 kts 341°
2026-05-06 17:43 48.71163 11.35241 17723 ft 386 kts 331°
2026-05-06 17:43 48.73459 11.33119 18270 ft 389 kts 324°
2026-05-06 17:44 48.75715 11.30830 18785 ft 391 kts 323°
2026-05-06 17:44 48.77981 11.28530 19370 ft 393 kts 323°
2026-05-06 17:44 48.80259 11.26215 19886 ft 396 kts 323°
2026-05-06 17:44 48.82554 11.23883 20408 ft 399 kts 323°
2026-05-06 17:45 48.84858 11.21375 20884 ft 400 kts 317°
2026-05-06 17:45 48.86922 11.18541 21366 ft 403 kts 314°
2026-05-06 17:45 48.88961 11.15699 21843 ft 406 kts 314°
2026-05-06 17:45 48.91051 11.12782 22322 ft 410 kts 314°
2026-05-06 17:46 48.93157 11.09839 22831 ft 413 kts 314°
2026-05-06 17:46 48.95285 11.06862 23313 ft 417 kts 314°
2026-05-06 17:46 48.97430 11.03866 23699 ft 420 kts 314°
2026-05-06 17:46 48.99603 11.00831 23789 ft 422 kts 314°
2026-05-06 17:47 49.01745 10.97839 23800 ft 416 kts 314°
2026-05-06 17:47 49.03869 10.94867 23822 ft 413 kts 314°
2026-05-06 17:47 49.05979 10.91902 23821 ft 412 kts 314°
2026-05-06 17:47 49.08086 10.88933 23822 ft 412 kts 314°
2026-05-06 17:48 49.10188 10.85962 23819 ft 412 kts 314°
2026-05-06 17:48 49.12289 10.82989 23843 ft 412 kts 314°
2026-05-06 17:48 49.14393 10.80008 23844 ft 412 kts 313°
2026-05-06 17:48 49.16496 10.77023 23844 ft 412 kts 313°
2026-05-06 17:49 49.18597 10.74038 23846 ft 412 kts 313°
2026-05-06 17:49 49.20681 10.71040 23839 ft 411 kts 312°
2026-05-06 17:49 49.22709 10.67959 23848 ft 411 kts 311°
2026-05-06 17:49 49.24683 10.64833 23825 ft 411 kts 310°
2026-05-06 17:50 49.26663 10.61633 23829 ft 412 kts 310°
2026-05-06 17:50 49.28633 10.58448 23830 ft 410 kts 310°
2026-05-06 17:50 49.30573 10.55340 23799 ft 398 kts 310°
2026-05-06 17:50 49.32487 10.52297 23684 ft 395 kts 310°
2026-05-06 17:51 49.34392 10.49284 23192 ft 392 kts 310°
2026-05-06 17:51 49.36228 10.46223 22651 ft 386 kts 304°
2026-05-06 17:51 49.37781 10.42911 22137 ft 381 kts 301°
2026-05-06 17:51 49.39299 10.39589 21657 ft 379 kts 301°
2026-05-06 17:52 49.40806 10.36289 21212 ft 376 kts 301°
2026-05-06 17:52 49.42301 10.33016 20757 ft 373 kts 301°
2026-05-06 17:52 49.43785 10.29765 20324 ft 370 kts 302°
2026-05-06 17:52 49.45256 10.26537 19885 ft 368 kts 302°
2026-05-06 17:53 49.46697 10.23368 19471 ft 365 kts 302°
2026-05-06 17:53 49.48144 10.20183 19056 ft 362 kts 302°
2026-05-06 17:53 49.49599 10.16978 18645 ft 359 kts 302°
2026-05-06 17:53 49.51022 10.13831 18242 ft 357 kts 302°
2026-05-06 17:54 49.52411 10.10749 17821 ft 354 kts 302°
2026-05-06 17:54 49.53809 10.07644 17382 ft 351 kts 302°
2026-05-06 17:54 49.55197 10.04561 16949 ft 349 kts 302°
2026-05-06 17:54 49.56571 10.01508 16519 ft 346 kts 302°
2026-05-06 17:55 49.57941 9.98468 16094 ft 344 kts 302°
2026-05-06 17:55 49.59299 9.95456 15674 ft 342 kts 302°
2026-05-06 17:55 49.60652 9.92451 15278 ft 340 kts 302°
2026-05-06 17:55 49.61990 9.89470 14904 ft 337 kts 303°
2026-05-06 17:56 49.63319 9.86505 14531 ft 335 kts 303°
2026-05-06 17:56 49.64640 9.83560 14146 ft 332 kts 303°
2026-05-06 17:56 49.65519 9.81598 13894 ft 331 kts 303°
2026-05-06 17:56 49.66828 9.78668 13518 ft 329 kts 303°
2026-05-06 17:57 49.68118 9.75771 13102 ft 327 kts 302°
2026-05-06 17:57 49.69384 9.72927 12699 ft 325 kts 303°
2026-05-06 17:57 49.70660 9.70061 12302 ft 322 kts 302°
2026-05-06 17:57 49.71925 9.67213 11890 ft 320 kts 302°
2026-05-06 17:58 49.73182 9.64384 11495 ft 318 kts 302°
2026-05-06 17:58 49.74448 9.61537 11094 ft 316 kts 302°
2026-05-06 17:58 49.75687 9.58744 10816 ft 314 kts 302°
2026-05-06 17:58 49.76921 9.55958 10802 ft 315 kts 302°
2026-05-06 17:59 49.78158 9.53160 10804 ft 314 kts 302°
2026-05-06 17:59 49.79374 9.50411 10806 ft 313 kts 302°
2026-05-06 17:59 49.80617 9.47594 10806 ft 313 kts 302°
2026-05-06 17:59 49.81808 9.44889 10788 ft 301 kts 302°
2026-05-06 18:00 49.82963 9.42262 10813 ft 292 kts 302°
2026-05-06 18:00 49.84099 9.39676 10818 ft 290 kts 302°
2026-05-06 18:00 49.85233 9.37095 10815 ft 290 kts 302°
2026-05-06 18:00 49.86228 9.34396 10816 ft 287 kts 291°
2026-05-06 18:01 49.86868 9.31479 10804 ft 286 kts 284°
2026-05-06 18:01 49.87424 9.28538 10803 ft 286 kts 284°
2026-05-06 18:01 49.87994 9.25561 10814 ft 286 kts 285°
2026-05-06 18:01 49.88563 9.22596 10806 ft 287 kts 285°
2026-05-06 18:02 49.89131 9.19640 10808 ft 286 kts 285°
2026-05-06 18:02 49.89698 9.16686 10706 ft 284 kts 285°
2026-05-06 18:02 49.90260 9.13753 10369 ft 283 kts 284°
2026-05-06 18:02 49.90815 9.10831 10030 ft 281 kts 284°
2026-05-06 18:03 49.91365 9.07933 9720 ft 279 kts 284°
2026-05-06 18:03 49.91912 9.05056 9356 ft 277 kts 284°
2026-05-06 18:03 49.92454 9.02196 8994 ft 275 kts 284°
2026-05-06 18:03 49.92990 8.99360 8619 ft 273 kts 284°
2026-05-06 18:04 49.93522 8.96537 8248 ft 272 kts 284°
2026-05-06 18:04 49.94043 8.93773 7887 ft 270 kts 284°
2026-05-06 18:04 49.94735 8.91077 7516 ft 271 kts 301°
2026-05-06 18:04 49.96036 8.88979 7151 ft 274 kts 323°
2026-05-06 18:05 49.97790 8.87810 6774 ft 278 kts 346°
2026-05-06 18:05 49.99723 8.87822 6393 ft 282 kts 11°
2026-05-06 18:05 50.01505 8.89062 6010 ft 284 kts 36°
2026-05-06 18:05 50.02812 8.91335 5602 ft 284 kts 61°
2026-05-06 18:06 50.03548 8.94170 5162 ft 283 kts 71°
2026-05-06 18:06 50.04211 8.97045 4759 ft 282 kts 70°
2026-05-06 18:06 50.04872 8.99891 4367 ft 280 kts 70°
2026-05-06 18:06 50.05537 9.02726 4035 ft 276 kts 70°
2026-05-06 18:07 50.06293 9.05463 4007 ft 276 kts 56°
2026-05-06 18:07 50.07660 9.07497 4008 ft 273 kts 26°
2026-05-06 18:07 50.09454 9.08289 4008 ft 268 kts 358°
2026-05-06 18:07 50.11258 9.07780 4008 ft 262 kts 332°
2026-05-06 18:08 50.12712 9.06149 4010 ft 257 kts 306°
2026-05-06 18:08 50.13499 9.03759 4005 ft 240 kts 284°
2026-05-06 18:08 50.13727 9.01295 4003 ft 221 kts 268°
2026-05-06 18:08 50.13515 8.99021 4006 ft 205 kts 252°
2026-05-06 18:09 50.13041 8.96955 4004 ft 201 kts 250°
2026-05-06 18:09 50.12565 8.94915 4006 ft 199 kts 250°
2026-05-06 18:09 50.12089 8.92882 4010 ft 200 kts 250°
2026-05-06 18:09 50.11611 8.90839 4006 ft 201 kts 250°
2026-05-06 18:10 50.11131 8.88797 4004 ft 201 kts 250°
2026-05-06 18:10 50.10661 8.86799 3999 ft 190 kts 250°
2026-05-06 18:10 50.10217 8.84911 3886 ft 183 kts 250°
2026-05-06 18:10 50.09784 8.83071 3680 ft 179 kts 250°
2026-05-06 18:11 50.09358 8.81258 3442 ft 178 kts 251°
2026-05-06 18:11 50.08934 8.79461 3209 ft 176 kts 251°
2026-05-06 18:11 50.08510 8.77663 2970 ft 178 kts 251°
2026-05-06 18:11 50.08083 8.75855 2726 ft 177 kts 251°
2026-05-06 18:12 50.07655 8.74047 2485 ft 179 kts 252°
2026-05-06 18:12 50.07224 8.72221 2244 ft 180 kts 253°
2026-05-06 18:12 50.06799 8.70432 2004 ft 172 kts 253°
2026-05-06 18:12 50.06402 8.68761 1801 ft 155 kts 253°
2026-05-06 18:13 50.06043 8.67253 1577 ft 143 kts 253°
2026-05-06 18:13 50.05707 8.65868 1373 ft 137 kts 253°
2026-05-06 18:13 50.05378 8.64471 1201 ft 138 kts 251°
2026-05-06 18:13 50.05051 8.63069 1003 ft 138 kts 252°
2026-05-06 18:14 50.04703 8.61644 839 ft 141 kts 253°
2026-05-06 18:14 50.04377 8.60236 636 ft 137 kts 253°
2026-05-06 18:14 50.04052 8.58851 424 ft 135 kts 253°
2026-05-06 18:14 50.03748 8.57549 363 ft 116 kts 249°
2026-05-06 18:15 50.03515 8.56610 355 ft 71 kts 249°
2026-05-06 18:15 50.03436 8.56108 357 ft 34 kts 271°
2026-05-06 18:15 50.03460 8.55847 347 ft 15 kts 279°
2026-05-06 18:15 50.03466 8.55797 351 ft 0 kts 280°
2026-05-06 18:16 50.03469 8.55766 350 ft 6 kts 283°
2026-05-06 18:16 50.03506 8.55705 350 ft 10 kts 343°
2026-05-06 18:17 50.03563 8.55772 350 ft 15 kts 65°
2026-05-06 18:17 50.03617 8.55994 357 ft 29 kts 69°
2026-05-06 18:17 50.03695 8.56321 359 ft 35 kts 69°
2026-05-06 18:17 50.03787 8.56705 357 ft 39 kts 70°
2026-05-06 18:18 50.03880 8.57096 358 ft 38 kts 70°
2026-05-06 18:18 50.03969 8.57469 368 ft 36 kts 69°
2026-05-06 18:18 50.04053 8.57820 370 ft 23 kts 70°
2026-05-06 18:18 50.04098 8.58008 370 ft 18 kts 70°
2026-05-06 18:19 50.04165 8.58151 367 ft 17 kts 30°
2026-05-06 18:19 50.04283 8.58204 366 ft 18 kts 351°
2026-05-06 18:19 50.04404 8.58136 370 ft 19 kts 339°
2026-05-06 18:19 50.04519 8.58073 368 ft 18 kts 341°
2026-05-06 18:20 50.04609 8.58019 363 ft 1 kts 338°
2026-05-06 18:21 50.04616 8.58015 362 ft 2 kts 338°
2026-05-06 18:21 50.04635 8.58003 362 ft 4 kts 338°
2026-05-06 18:22 50.04661 8.57987 360 ft 4 kts 338°
2026-05-06 18:22 50.04690 8.57969 359 ft 5 kts 338°
2026-05-06 18:22 50.04723 8.57950 363 ft 7 kts 340°
2026-05-06 18:22 50.04780 8.57918 364 ft 11 kts 340°
2026-05-06 18:23 50.04845 8.57845 360 ft 12 kts 303°
2026-05-06 18:23 50.04893 8.57757 358 ft 10 kts 350°
2026-05-06 18:23 50.04938 8.57782 360 ft 3 kts 22°
2026-05-06 18:23 50.04947 8.57788 357 ft 0 kts 22°